Find Kiku-1

NORAD ID: 8197 Int'l Des: 1975-082 Owner: NASDA Country: J operational
LEOCIRCULAR

Current View

Loading 3D Globe...

About Kiku-1

Kiku-1 (NORAD 8197) is a satellite by NASDA of J. It operates in LEO, CIRCULAR orbit

Upcoming Passes

Passes for default location (London). Set your location on the main map for personalized predictions.

Altitude History

Loading altitude history...

Two-Line Element Set

1 8197U 75082A 26194.21044646 -.00000139 00000-0 -17456-4 0 9998
2 8197 46.9878 137.9918 0085564 177.5127 319.2354 13.59603803525956
Epoch: Jul 13, 2026 • Age: 28 hours

Current Status

Altitude 1052.9 km
Apogee / Perigee N/A
Velocity 7.33 km/s
Sub-Earth Point 46.43°N, 143.32°E
Type other

Most Searched